Time,TemperatureF,DewpointF,PressureIn,WindDirection,WindDirectionDegrees,WindSpeedMPH,WindSpeedGustMPH,Humidity,HourlyPrecipIn,Conditions,Clouds,dailyrainin,SoftwareType,DateUTC
2013-09-11 08:55:00,62.2,58.3,29.97,WSW,239,0.0,0.0,87,0.00,,,0.00,Wunderground v.1.15,2013-09-11 13:55:00,
2013-09-11 09:00:00,63.2,58.9,29.97,WSW,239,0.0,0.0,86,0.00,,,0.00,Wunderground v.1.15,2013-09-11 14:00:00,
2013-09-11 09:10:00,64.8,59.5,29.97,WSW,239,0.0,0.0,83,0.00,,,0.00,Wunderground v.1.15,2013-09-11 14:10:00,
2013-09-11 09:15:00,65.1,59.5,29.97,WSW,239,0.0,0.0,82,0.00,,,0.00,Wunderground v.1.15,2013-09-11 14:15:00,
2013-09-11 09:20:00,65.3,59.3,29.97,WSW,239,0.0,0.0,81,0.00,,,0.00,Wunderground v.1.15,2013-09-11 14:20:00,
2013-09-11 09:25:00,65.6,59.6,29.97,WSW,239,0.0,0.0,81,0.00,,,0.00,Wunderground v.1.15,2013-09-11 14:25:00,
2013-09-11 09:35:00,66.8,60.1,29.98,WSW,239,0.0,0.0,79,0.00,,,0.00,Wunderground v.1.15,2013-09-11 14:35:00,
2013-09-11 09:40:00,67.2,59.0,29.98,WSW,239,0.0,0.0,75,0.00,,,0.00,Wunderground v.1.15,2013-09-11 14:40:00,
2013-09-11 09:50:00,68.5,59.5,29.97,WSW,239,0.0,0.0,73,0.00,,,0.00,Wunderground v.1.15,2013-09-11 14:50:00,
2013-09-11 09:55:00,69.3,59.1,29.97,WSW,238,0.0,0.0,70,0.00,,,0.00,Wunderground v.1.15,2013-09-11 14:55:00,
2013-09-11 10:00:00,69.6,59.0,29.98,WSW,239,0.0,0.0,69,0.00,,,0.00,Wunderground v.1.15,2013-09-11 15:00:00,
2013-09-11 10:10:00,70.1,59.9,29.98,WSW,239,0.0,0.0,70,0.00,,,0.00,Wunderground v.1.15,2013-09-11 15:10:00,
2013-09-11 10:15:00,70.3,59.2,29.98,WSW,238,0.0,0.0,68,0.00,,,0.00,Wunderground v.1.15,2013-09-11 15:15:00,
2013-09-11 10:20:00,70.1,59.0,29.98,WSW,239,0.0,0.0,68,0.00,,,0.00,Wunderground v.1.15,2013-09-11 15:20:00,
2013-09-11 10:25:00,69.9,60.1,29.99,WSW,238,0.0,1.0,71,0.00,,,0.00,Wunderground v.1.15,2013-09-11 15:25:00,
2013-09-11 10:30:00,69.9,59.7,29.99,WSW,239,1.0,1.0,70,0.00,,,0.00,Wunderground v.1.15,2013-09-11 15:30:00,
2013-09-11 10:40:00,70.1,60.3,29.99,West,275,1.0,1.0,71,0.00,,,0.00,Wunderground v.1.15,2013-09-11 15:40:00,
2013-09-11 10:45:00,70.3,60.4,29.99,West,275,0.0,1.0,71,0.00,,,0.00,Wunderground v.1.15,2013-09-11 15:45:00,
2013-09-11 10:50:00,70.5,60.6,29.99,West,272,0.0,0.0,71,0.00,,,0.00,Wunderground v.1.15,2013-09-11 15:50:00,
2013-09-11 10:55:00,70.6,59.5,29.99,West,279,0.0,0.0,68,0.00,,,0.00,Wunderground v.1.15,2013-09-11 15:55:00,
2013-09-11 11:00:00,70.8,59.7,29.99,West,280,1.0,1.0,68,0.00,,,0.00,Wunderground v.1.15,2013-09-11 16:00:00,
2013-09-11 11:10:00,72.1,61.0,29.99,NW,317,0.0,0.0,68,0.00,,,0.00,Wunderground v.1.15,2013-09-11 16:10:00,
2013-09-11 11:15:00,72.3,59.4,29.99,West,279,1.0,1.0,64,0.00,,,0.00,Wunderground v.1.15,2013-09-11 16:15:00,
2013-09-11 11:20:00,72.4,60.4,29.99,West,274,1.0,3.0,66,0.00,,,0.00,Wunderground v.1.15,2013-09-11 16:20:00,
2013-09-11 11:25:00,72.6,59.3,29.99,West,269,1.0,3.0,63,0.00,,,0.00,Wunderground v.1.15,2013-09-11 16:25:00,
2013-09-11 11:30:00,72.9,60.0,29.99,West,270,1.0,1.0,64,0.00,,,0.00,Wunderground v.1.15,2013-09-11 16:30:00,
2013-09-11 11:35:00,73.0,56.9,29.99,West,269,1.0,1.0,57,0.00,,,0.00,Wunderground v.1.15,2013-09-11 16:35:00,
2013-09-11 11:45:00,73.2,56.6,29.99,West,273,3.0,3.0,56,0.00,,,0.00,Wunderground v.1.15,2013-09-11 16:45:00,
2013-09-11 11:50:00,73.3,56.7,30.00,West,271,2.0,2.0,56,0.00,,,0.00,Wunderground v.1.15,2013-09-11 16:50:00,
2013-09-11 12:00:00,74.5,57.8,29.99,NW,313,1.0,1.0,56,0.00,,,0.00,Wunderground v.1.15,2013-09-11 17:00:00,
2013-09-11 12:10:00,76.2,58.9,30.00,West,273,1.0,1.0,55,0.00,,,0.00,Wunderground v.1.15,2013-09-11 17:10:00,
2013-09-11 12:15:00,76.7,57.7,30.00,West,269,2.0,3.0,52,0.00,,,0.00,Wunderground v.1.15,2013-09-11 17:15:00,
2013-09-11 12:20:00,76.8,59.4,30.00,WNW,282,3.0,3.0,55,0.00,,,0.00,Wunderground v.1.15,2013-09-11 17:20:00,
2013-09-11 12:25:00,77.1,58.1,30.00,West,265,2.0,3.0,52,0.00,,,0.00,Wunderground v.1.15,2013-09-11 17:25:00,
2013-09-11 12:30:00,77.5,57.9,30.00,WNW,286,2.0,2.0,51,0.00,,,0.00,Wunderground v.1.15,2013-09-11 17:30:00,
2013-09-11 12:35:00,77.6,58.0,30.00,NW,317,2.0,2.0,51,0.00,,,0.00,Wunderground v.1.15,2013-09-11 17:35:00,
2013-09-11 12:40:00,77.8,57.7,30.00,NW,306,2.0,2.0,50,0.00,,,0.00,Wunderground v.1.15,2013-09-11 17:40:00,
2013-09-11 12:45:00,77.8,58.8,30.00,NW,326,3.0,6.0,52,0.00,,,0.00,Wunderground v.1.15,2013-09-11 17:45:00,
2013-09-11 12:50:00,77.7,59.2,30.00,NNW,333,2.0,2.0,53,0.00,,,0.00,Wunderground v.1.15,2013-09-11 17:50:00,
2013-09-11 12:55:00,77.6,58.0,30.00,NW,318,2.0,2.0,51,0.00,,,0.00,Wunderground v.1.15,2013-09-11 17:55:00,
2013-09-11 13:00:00,77.1,57.6,30.00,WNW,286,1.0,1.0,51,0.00,,,0.00,Wunderground v.1.15,2013-09-11 18:00:00,
2013-09-11 13:10:00,76.4,58.5,30.00,WNW,302,1.0,1.0,54,0.00,,,0.00,Wunderground v.1.15,2013-09-11 18:10:00,
2013-09-11 13:15:00,76.1,59.3,30.01,WNW,303,1.0,1.0,56,0.00,,,0.00,Wunderground v.1.15,2013-09-11 18:15:00,
2013-09-11 13:20:00,75.7,58.9,30.01,NNW,338,1.0,2.0,56,0.00,,,0.00,Wunderground v.1.15,2013-09-11 18:20:00,
2013-09-11 13:25:00,75.5,57.2,30.01,NNW,339,1.0,2.0,53,0.00,,,0.00,Wunderground v.1.15,2013-09-11 18:25:00,
2013-09-11 13:35:00,75.3,56.5,30.01,NNW,331,2.0,6.0,52,0.00,,,0.00,Wunderground v.1.15,2013-09-11 18:35:00,
2013-09-11 13:40:00,75.1,55.2,30.01,NW,311,3.0,3.0,50,0.00,,,0.00,Wunderground v.1.15,2013-09-11 18:40:00,
2013-09-11 13:45:00,75.0,55.6,30.01,West,281,3.0,3.0,51,0.00,,,0.00,Wunderground v.1.15,2013-09-11 18:45:00,
2013-09-11 13:50:00,74.8,55.5,30.01,NW,320,3.0,3.0,51,0.00,,,0.00,Wunderground v.1.15,2013-09-11 18:50:00,
2013-09-11 13:55:00,74.5,54.1,30.02,NW,318,2.0,3.0,49,0.00,,,0.00,Wunderground v.1.15,2013-09-11 18:55:00,
2013-09-11 14:00:00,74.3,55.0,30.02,NW,304,2.0,2.0,51,0.00,,,0.00,Wunderground v.1.15,2013-09-11 19:00:00,
2013-09-11 14:10:00,74.1,55.3,30.01,NNW,348,1.0,1.0,52,0.00,,,0.00,Wunderground v.1.15,2013-09-11 19:10:00,
2013-09-11 14:15:00,74.0,54.7,30.01,NW,322,2.0,3.0,51,0.00,,,0.00,Wunderground v.1.15,2013-09-11 19:15:00,
2013-09-11 14:20:00,73.9,55.2,30.01,NW,321,2.0,10.0,52,0.00,,,0.00,Wunderground v.1.15,2013-09-11 19:20:00,
2013-09-11 14:25:00,73.9,56.2,30.01,NNW,348,2.0,10.0,54,0.00,,,0.00,Wunderground v.1.15,2013-09-11 19:25:00,
2013-09-11 14:30:00,74.0,56.3,30.00,NNW,338,2.0,2.0,54,0.00,,,0.00,Wunderground v.1.15,2013-09-11 19:30:00,
2013-09-11 14:35:00,74.2,55.4,30.00,NNW,333,2.0,2.0,52,0.00,,,0.00,Wunderground v.1.15,2013-09-11 19:35:00,
2013-09-11 14:45:00,74.5,55.7,30.00,NW,325,2.0,4.0,52,0.00,,,0.00,Wunderground v.1.15,2013-09-11 19:45:00,
2013-09-11 14:50:00,74.8,54.9,30.00,NW,317,1.0,2.0,50,0.00,,,0.00,Wunderground v.1.15,2013-09-11 19:50:00,
2013-09-11 14:55:00,75.5,53.9,30.00,NNW,333,2.0,2.0,47,0.00,,,0.00,Wunderground v.1.15,2013-09-11 19:55:00,
2013-09-11 15:00:00,75.9,54.8,30.00,NNW,327,3.0,3.0,48,0.00,,,0.00,Wunderground v.1.15,2013-09-11 20:00:00,
2013-09-11 15:10:00,76.5,53.0,30.00,NNW,331,2.0,5.0,44,0.00,,,0.00,Wunderground v.1.15,2013-09-11 20:10:00,
2013-09-11 15:20:00,76.9,56.3,30.00,WNW,302,1.0,4.0,49,0.00,,,0.00,Wunderground v.1.15,2013-09-11 20:20:00,
2013-09-11 15:25:00,76.9,55.7,30.00,West,274,1.0,4.0,48,0.00,,,0.00,Wunderground v.1.15,2013-09-11 20:25:00,
2013-09-11 15:30:00,76.9,55.1,30.01,West,265,1.0,6.0,47,0.00,,,0.00,Wunderground v.1.15,2013-09-11 20:30:00,
2013-09-11 15:35:00,77.0,55.8,30.00,West,261,2.0,6.0,48,0.00,,,0.00,Wunderground v.1.15,2013-09-11 20:35:00,
2013-09-11 15:45:00,77.0,54.6,30.00,WNW,301,2.0,3.0,46,0.00,,,0.00,Wunderground v.1.15,2013-09-11 20:45:00,
2013-09-11 15:55:00,78.2,55.1,30.00,WNW,299,2.0,2.0,45,0.00,,,0.00,Wunderground v.1.15,2013-09-11 20:55:00,
2013-09-11 16:00:00,78.2,53.2,30.00,West,272,3.0,3.0,42,0.00,,,0.00,Wunderground v.1.15,2013-09-11 21:00:00,
2013-09-11 16:10:00,77.7,55.3,30.00,NW,317,2.0,2.0,46,0.00,,,0.00,Wunderground v.1.15,2013-09-11 21:10:00,
2013-09-11 16:15:00,78.2,54.5,30.00,NW,313,3.0,4.0,44,0.00,,,0.00,Wunderground v.1.15,2013-09-11 21:15:00,
2013-09-11 16:25:00,78.7,53.7,30.00,NNW,333,3.0,9.0,42,0.00,,,0.00,Wunderground v.1.15,2013-09-11 21:25:00,
2013-09-11 16:30:00,78.7,53.0,30.00,NNW,330,3.0,5.0,41,0.00,,,0.00,Wunderground v.1.15,2013-09-11 21:30:00,
2013-09-11 16:35:00,78.5,52.8,30.00,WNW,284,4.0,5.0,41,0.00,,,0.00,Wunderground v.1.15,2013-09-11 21:35:00,
2013-09-11 16:40:00,78.0,51.7,30.00,NNW,333,4.0,4.0,40,0.00,,,0.00,Wunderground v.1.15,2013-09-11 21:40:00,
2013-09-11 16:45:00,77.5,51.9,30.00,NNW,344,3.0,4.0,41,0.00,,,0.00,Wunderground v.1.15,2013-09-11 21:45:00,
2013-09-11 16:50:00,77.6,52.0,30.00,NNW,336,3.0,3.0,41,0.00,,,0.00,Wunderground v.1.15,2013-09-11 21:50:00,
2013-09-11 17:00:00,78.3,52.7,30.00,NW,311,1.0,3.0,41,0.00,,,0.00,Wunderground v.1.15,2013-09-11 22:00:00,
2013-09-11 17:10:00,78.9,52.5,30.00,NNE,32,3.0,3.0,40,0.00,,,0.00,Wunderground v.1.15,2013-09-11 22:10:00,
2013-09-11 17:15:00,79.1,54.0,30.00,NNE,23,3.0,5.0,42,0.00,,,0.00,Wunderground v.1.15,2013-09-11 22:15:00,
2013-09-11 17:20:00,79.2,52.1,30.00,North,360,3.0,3.0,39,0.00,,,0.00,Wunderground v.1.15,2013-09-11 22:20:00,
2013-09-11 17:25:00,79.2,53.5,30.00,North,9,3.0,3.0,41,0.00,,,0.00,Wunderground v.1.15,2013-09-11 22:25:00,
2013-09-11 17:30:00,79.2,52.1,30.00,ENE,66,3.0,6.0,39,0.00,,,0.00,Wunderground v.1.15,2013-09-11 22:30:00,
2013-09-11 17:35:00,79.1,52.7,30.00,NNW,336,3.0,6.0,40,0.00,,,0.00,Wunderground v.1.15,2013-09-11 22:35:00,
2013-09-11 17:40:00,79.0,51.2,30.00,NE,49,3.0,4.0,38,0.00,,,0.00,Wunderground v.1.15,2013-09-11 22:40:00,
2013-09-11 17:45:00,78.7,51.0,30.00,NE,34,3.0,4.0,38,0.00,,,0.00,Wunderground v.1.15,2013-09-11 22:45:00,
2013-09-11 17:50:00,78.7,51.7,30.00,North,355,3.0,7.0,39,0.00,,,0.00,Wunderground v.1.15,2013-09-11 22:50:00,
2013-09-11 18:00:00,78.9,51.8,30.01,North,350,1.0,1.0,39,0.00,,,0.00,Wunderground v.1.15,2013-09-11 23:00:00,
2013-09-11 18:10:00,78.8,51.7,30.00,North,360,2.0,2.0,39,0.00,,,0.00,Wunderground v.1.15,2013-09-11 23:10:00,
2013-09-11 18:15:00,78.9,51.8,30.00,NNW,333,1.0,2.0,39,0.00,,,0.00,Wunderground v.1.15,2013-09-11 23:15:00,
2013-09-11 18:20:00,78.9,51.8,30.01,NNW,347,1.0,1.0,39,0.00,,,0.00,Wunderground v.1.15,2013-09-11 23:20:00,
2013-09-11 18:25:00,78.4,51.4,30.00,NNW,334,1.0,1.0,39,0.00,,,0.00,Wunderground v.1.15,2013-09-11 23:25:00,
2013-09-11 18:30:00,77.6,50.7,30.00,North,355,1.0,1.0,39,0.00,,,0.00,Wunderground v.1.15,2013-09-11 23:30:00,
2013-09-11 18:35:00,76.8,50.0,30.00,NNW,331,1.0,1.0,39,0.00,,,0.00,Wunderground v.1.15,2013-09-11 23:35:00,
2013-09-11 18:40:00,76.2,50.1,30.00,NNW,347,1.0,1.0,40,0.00,,,0.00,Wunderground v.1.15,2013-09-11 23:40:00,
2013-09-11 18:45:00,75.6,50.9,30.00,NNW,346,2.0,2.0,42,0.00,,,0.00,Wunderground v.1.15,2013-09-11 23:45:00,
2013-09-11 18:55:00,74.8,50.2,30.01,North,5,2.0,4.0,42,0.00,,,0.00,Wunderground v.1.15,2013-09-11 23:55:00,
2013-09-11 19:00:00,74.4,50.4,30.01,North,351,1.0,2.0,43,0.00,,,0.00,Wunderground v.1.15,2013-09-12 00:00:00,
2013-09-11 19:10:00,73.6,50.3,30.01,North,5,2.0,2.0,44,0.00,,,0.00,Wunderground v.1.15,2013-09-12 00:10:00,
2013-09-11 19:15:00,73.2,50.6,30.01,North,5,1.0,2.0,45,0.00,,,0.00,Wunderground v.1.15,2013-09-12 00:15:00,
2013-09-11 19:25:00,72.3,50.4,30.01,North,5,0.0,1.0,46,0.00,,,0.00,Wunderground v.1.15,2013-09-12 00:25:00,
2013-09-11 19:30:00,71.9,50.6,30.01,North,5,1.0,1.0,47,0.00,,,0.00,Wunderground v.1.15,2013-09-12 00:30:00,
2013-09-11 19:40:00,70.9,50.8,30.01,North,5,1.0,1.0,49,0.00,,,0.00,Wunderground v.1.15,2013-09-12 00:40:00,
2013-09-11 19:45:00,70.4,50.3,30.02,North,11,1.0,2.0,49,0.00,,,0.00,Wunderground v.1.15,2013-09-12 00:45:00,
2013-09-11 19:50:00,69.9,50.4,30.02,North,11,1.0,1.0,50,0.00,,,0.00,Wunderground v.1.15,2013-09-12 00:50:00,
2013-09-11 19:55:00,69.5,50.6,30.02,North,9,1.0,1.0,51,0.00,,,0.00,Wunderground v.1.15,2013-09-12 00:55:00,
2013-09-11 20:00:00,69.0,50.6,30.02,North,9,1.0,1.0,52,0.00,,,0.00,Wunderground v.1.15,2013-09-12 01:00:00,
2013-09-11 20:10:00,68.1,50.8,30.03,North,11,1.0,1.0,54,0.00,,,0.00,Wunderground v.1.15,2013-09-12 01:10:00,
2013-09-11 20:15:00,67.7,50.5,30.03,North,11,1.0,3.0,54,0.00,,,0.00,Wunderground v.1.15,2013-09-12 01:15:00,
2013-09-11 20:20:00,67.3,50.6,30.03,North,10,1.0,1.0,55,0.00,,,0.00,Wunderground v.1.15,2013-09-12 01:20:00,
2013-09-11 20:30:00,66.8,50.6,30.03,NE,36,2.0,3.0,56,0.00,,,0.00,Wunderground v.1.15,2013-09-12 01:30:00,
2013-09-11 20:40:00,66.6,50.4,30.04,NE,52,2.0,2.0,56,0.00,,,0.00,Wunderground v.1.15,2013-09-12 01:40:00,
2013-09-11 20:45:00,66.4,50.7,30.04,NE,43,2.0,2.0,57,0.00,,,0.00,Wunderground v.1.15,2013-09-12 01:45:00,
2013-09-11 20:50:00,66.1,50.4,30.05,NNE,28,2.0,2.0,57,0.00,,,0.00,Wunderground v.1.15,2013-09-12 01:50:00,
2013-09-11 20:55:00,65.9,50.2,30.05,NNE,30,2.0,2.0,57,0.00,,,0.00,Wunderground v.1.15,2013-09-12 01:55:00,
2013-09-11 21:00:00,65.5,50.3,30.05,NE,34,2.0,2.0,58,0.00,,,0.00,Wunderground v.1.15,2013-09-12 02:00:00,
2013-09-11 21:10:00,65.0,50.3,30.06,NE,38,1.0,1.0,59,0.00,,,0.00,Wunderground v.1.15,2013-09-12 02:10:00,
2013-09-11 21:15:00,64.6,50.4,30.06,NE,38,1.0,1.0,60,0.00,,,0.00,Wunderground v.1.15,2013-09-12 02:15:00,
2013-09-11 21:20:00,64.1,50.4,30.06,NE,38,1.0,1.0,61,0.00,,,0.00,Wunderground v.1.15,2013-09-12 02:20:00,
2013-09-11 21:30:00,63.2,50.0,30.07,NE,38,0.0,1.0,62,0.00,,,0.00,Wunderground v.1.15,2013-09-12 02:30:00,
2013-09-11 21:35:00,62.7,49.9,30.07,NE,40,1.0,1.0,63,0.00,,,0.00,Wunderground v.1.15,2013-09-12 02:35:00,
2013-09-11 21:40:00,62.4,49.6,30.07,NE,40,1.0,1.0,63,0.00,,,0.00,Wunderground v.1.15,2013-09-12 02:40:00,
2013-09-11 21:50:00,62.0,50.1,30.07,East,82,1.0,1.0,65,0.00,,,0.00,Wunderground v.1.15,2013-09-12 02:50:00,
2013-09-11 21:55:00,61.7,49.8,30.07,East,82,1.0,1.0,65,0.00,,,0.00,Wunderground v.1.15,2013-09-12 02:55:00,
2013-09-11 22:00:00,61.4,50.3,30.07,East,82,0.0,0.0,67,0.00,,,0.00,Wunderground v.1.15,2013-09-12 03:00:00,
2013-09-11 22:10:00,60.5,49.9,30.07,East,82,0.0,0.0,68,0.00,,,0.00,Wunderground v.1.15,2013-09-12 03:10:00,
2013-09-11 22:15:00,60.1,49.9,30.07,East,82,0.0,0.0,69,0.00,,,0.00,Wunderground v.1.15,2013-09-12 03:15:00,
2013-09-11 22:20:00,59.8,50.4,30.08,East,82,0.0,0.0,71,0.00,,,0.00,Wunderground v.1.15,2013-09-12 03:20:00,
2013-09-11 22:25:00,59.4,50.0,30.08,East,82,0.0,0.0,71,0.00,,,0.00,Wunderground v.1.15,2013-09-12 03:25:00,
2013-09-11 22:30:00,59.0,50.0,30.08,East,82,0.0,0.0,72,0.00,,,0.00,Wunderground v.1.15,2013-09-12 03:30:00,
2013-09-11 22:35:00,59.0,50.0,30.08,East,82,0.0,0.0,72,0.00,,,0.00,Wunderground v.1.15,2013-09-12 03:35:00,
2013-09-11 22:40:00,58.6,50.0,30.08,East,82,0.0,0.0,73,0.00,,,0.00,Wunderground v.1.15,2013-09-12 03:40:00,
2013-09-11 22:50:00,58.2,50.0,30.08,East,82,0.0,0.0,74,0.00,,,0.00,Wunderground v.1.15,2013-09-12 03:50:00,
2013-09-11 22:55:00,58.0,49.8,30.08,East,82,0.0,0.0,74,0.00,,,0.00,Wunderground v.1.15,2013-09-12 03:55:00,
2013-09-11 23:00:00,57.8,49.9,30.08,East,82,0.0,0.0,75,0.00,,,0.00,Wunderground v.1.15,2013-09-12 04:00:00,
2013-09-11 23:05:00,57.7,49.8,30.08,East,82,0.0,0.0,75,0.00,,,0.00,Wunderground v.1.15,2013-09-12 04:05:00,
2013-09-11 23:10:00,57.5,49.6,30.08,East,82,0.0,0.0,75,0.00,,,0.00,Wunderground v.1.15,2013-09-12 04:10:00,
2013-09-11 23:15:00,57.3,49.8,30.08,East,82,0.0,0.0,76,0.00,,,0.00,Wunderground v.1.15,2013-09-12 04:15:00,
2013-09-11 23:20:00,57.0,49.5,30.09,East,82,0.0,0.0,76,0.00,,,0.00,Wunderground v.1.15,2013-09-12 04:20:00,
2013-09-11 23:25:00,56.8,49.7,30.09,East,82,0.0,0.0,77,0.00,,,0.00,Wunderground v.1.15,2013-09-12 04:25:00,
2013-09-11 23:30:00,56.4,49.6,30.09,East,82,0.0,0.0,78,0.00,,,0.00,Wunderground v.1.15,2013-09-12 04:30:00,
2013-09-11 23:40:00,55.9,49.5,30.09,East,82,0.0,0.0,79,0.00,,,0.00,Wunderground v.1.15,2013-09-12 04:40:00,
2013-09-11 23:45:00,55.6,49.5,30.09,East,82,0.0,0.0,80,0.00,,,0.00,Wunderground v.1.15,2013-09-12 04:45:00,
2013-09-11 23:50:00,55.3,49.2,30.09,East,82,0.0,0.0,80,0.00,,,0.00,Wunderground v.1.15,2013-09-12 04:50:00,
2013-09-11 23:55:00,55.0,48.9,30.09,East,82,0.0,0.0,80,0.00,,,0.00,Wunderground v.1.15,2013-09-12 04:55:00,